| time (UTC) | temp F | wind direction | speed knots | gust knots | rain 1hr in | rain 24hr in | rain mn in | humidity % | barometer mb |
| 20260903110358 | 67 | 238 | 0.9 | 4.3 | 0.00 | 0.35 | 0.00 | 99 | 1014.3 |
| 20260903110158 | 67 | 200 | 0.0 | 3.5 | 0.00 | 0.35 | 0.00 | 99 | 1014.2 |
| 20260903105957 | 67 | 215 | 1.7 | 3.5 | 0.00 | 0.35 | 0.00 | 99 | 1014.3 |
| 20260903105757 | 67 | 214 | 0.9 | 3.5 | 0.00 | 0.35 | 0.00 | 99 | 1014.2 |
| 20260903105557 | 67 | 229 | 0.9 | 3.5 | 0.00 | 0.35 | 0.00 | 99 | 1014.2 |
| 20260903105356 | 67 | 237 | 1.7 | 3.5 | 0.00 | 0.35 | 0.00 | 99 | 1014.1 |
| 20260903105156 | 67 | 227 | 1.7 | 3.5 | 0.00 | 0.35 | 0.00 | 99 | 1014.1 |
| 20260903104956 | 67 | 221 | 1.7 | 3.5 | 0.00 | 0.35 | 0.00 | 99 | 1014.1 |
| 20260903104755 | 67 | 214 | 0.9 | 3.5 | 0.00 | 0.35 | 0.00 | 99 | 1014.1 |
| 20260903104555 | 67 | 193 | 0.9 | 3.5 | 0.00 | 0.35 | 0.00 | 99 | 1014.0 |
| 20260903104355 | 67 | 225 | 0.9 | 3.5 | 0.00 | 0.35 | 0.00 | 99 | 1013.9 |
| 20260903104154 | 67 | 202 | 0.9 | 3.5 | 0.00 | 0.35 | 0.00 | 99 | 1014.0 |
| 20260903103954 | 67 | 237 | 0.9 | 2.6 | 0.00 | 0.35 | 0.00 | 99 | 1013.9 |
| 20260903103754 | 67 | 253 | 0.0 | 2.6 | 0.00 | 0.35 | 0.00 | 99 | 1013.8 |
| 20260903103554 | 67 | 253 | 0.0 | 2.6 | 0.00 | 0.35 | 0.00 | 99 | 1013.8 |
| 20260903103353 | 67 | 0 | 0.0 | 2.6 | 0.00 | 0.35 | 0.00 | 99 | 1013.8 |
| 20260903103153 | 67 | 249 | 0.0 | 2.6 | 0.00 | 0.35 | 0.00 | 99 | 1013.6 |
| 20260903102953 | 67 | 235 | 0.0 | 2.6 | 0.00 | 0.35 | 0.00 | 99 | 1013.6 |
| 20260903102752 | 67 | 230 | 0.9 | 2.6 | 0.00 | 0.35 | 0.00 | 99 | 1013.6 |
| 20260903102552 | 67 | 230 | 0.0 | 1.7 | 0.00 | 0.35 | 0.00 | 99 | 1013.6 |
| 20260903102352 | 67 | 230 | 0.0 | 1.7 | 0.00 | 0.35 | 0.00 | 99 | 1013.6 |
| 20260903102151 | 67 | 230 | 0.0 | 1.7 | 0.00 | 0.35 | 0.00 | 99 | 1013.6 |
| 20260903101951 | 67 | 230 | 0.0 | 2.6 | 0.00 | 0.35 | 0.00 | 99 | 1013.6 |
| 20260903101751 | 67 | 230 | 0.0 | 2.6 | 0.00 | 0.35 | 0.00 | 99 | 1013.5 |
| 20260903101551 | 67 | 230 | 0.9 | 2.6 | 0.00 | 0.35 | 0.00 | 99 | 1013.5 |
| 20260903101350 | 67 | 230 | 0.9 | 2.6 | 0.00 | 0.35 | 0.00 | 99 | 1013.5 |
| 20260903101150 | 67 | 230 | 0.9 | 2.6 | 0.00 | 0.35 | 0.00 | 99 | 1013.5 |
| 20260903100949 | 67 | 230 | 0.9 | 2.6 | 0.00 | 0.35 | 0.00 | 99 | 1013.5 |
| 20260903100749 | 67 | 230 | 0.9 | 2.6 | 0.00 | 0.35 | 0.00 | 99 | 1013.5 |
| 20260903100549 | 67 | 231 | 0.9 | 2.6 | 0.00 | 0.35 | 0.00 | 99 | 1013.5 |
| 20260903100349 | 67 | 222 | 0.9 | 2.6 | 0.00 | 0.35 | 0.00 | 98 | 1013.5 |
| 20260903100148 | 67 | 117 | 0.9 | 2.6 | 0.00 | 0.35 | 0.00 | 98 | 1013.5 |
| 20260903095948 | 67 | 108 | 0.0 | 1.7 | 0.00 | 0.35 | 0.00 | 98 | 1013.5 |
| 20260903095748 | 67 | 108 | 0.0 | 1.7 | 0.00 | 0.35 | 0.00 | 98 | 1013.4 |
| 20260903095547 | 67 | 108 | 0.0 | 1.7 | 0.00 | 0.35 | 0.00 | 98 | 1013.3 |
| 20260903095347 | 67 | 108 | 0.0 | 0.9 | 0.00 | 0.35 | 0.00 | 98 | 1013.4 |
| 20260903095147 | 67 | 0 | 0.0 | 0.9 | 0.00 | 0.35 | 0.00 | 98 | 1013.4 |
| 20260903094946 | 67 | 108 | 0.0 | 0.9 | 0.00 | 0.35 | 0.00 | 98 | 1013.3 |
| 20260903094746 | 67 | 108 | 0.0 | 1.7 | 0.00 | 0.35 | 0.00 | 98 | 1013.2 |
| 20260903094546 | 67 | 108 | 0.0 | 1.7 | 0.00 | 0.35 | 0.00 | 98 | 1013.2 |
| 20260903094345 | 67 | 108 | 0.0 | 1.7 | 0.00 | 0.35 | 0.00 | 98 | 1013.2 |
| 20260903094145 | 67 | 108 | 0.0 | 1.7 | 0.00 | 0.35 | 0.00 | 98 | 1013.2 |
| 20260903093945 | 67 | 108 | 0.0 | 1.7 | 0.00 | 0.35 | 0.00 | 98 | 1013.1 |
| 20260903093745 | 67 | 108 | 0.0 | 0.9 | 0.00 | 0.35 | 0.00 | 98 | 1013.2 |
| 20260903093544 | 67 | 108 | 0.0 | 0.9 | 0.00 | 0.35 | 0.00 | 98 | 1013.2 |
| 20260903093344 | 67 | 108 | 0.0 | 0.9 | 0.00 | 0.35 | 0.00 | 98 | 1013.2 |
| 20260903093144 | 67 | 108 | 0.0 | 0.9 | 0.00 | 0.35 | 0.00 | 98 | 1013.1 |
| 20260903092943 | 67 | 108 | 0.0 | 0.9 | 0.00 | 0.35 | 0.00 | 98 | 1013.0 |
| 20260903092743 | 67 | 108 | 0.0 | 0.9 | 0.00 | 0.35 | 0.00 | 98 | 1013.0 |
| 20260903092543 | 67 | 108 | 0.0 | 0.9 | 0.00 | 0.35 | 0.00 | 98 | 1013.0 |
| 20260903092342 | 68 | 108 | 0.0 | 0.9 | 0.00 | 0.35 | 0.00 | 98 | 1013.0 |
| 20260903092142 | 68 | 108 | 0.0 | 0.9 | 0.00 | 0.35 | 0.00 | 98 | 1013.0 |
| 20260903091942 | 68 | 108 | 0.0 | 0.9 | 0.00 | 0.35 | 0.00 | 98 | 1013.0 |
| 20260903091741 | 68 | 108 | 0.0 | 0.9 | 0.00 | 0.35 | 0.00 | 98 | 1013.0 |
| 20260903091541 | 68 | 108 | 0.0 | 0.9 | 0.00 | 0.35 | 0.00 | 98 | 1013.0 |
| 20260903091341 | 68 | 108 | 0.0 | 0.9 | 0.00 | 0.35 | 0.00 | 98 | 1013.0 |
| 20260903091140 | 68 | 108 | 0.0 | 0.9 | 0.00 | 0.35 | 0.00 | 98 | 1013.1 |
| 20260903090940 | 68 | 108 | 0.0 | 0.9 | 0.00 | 0.35 | 0.00 | 98 | 1013.0 |
| 20260903090740 | 68 | 108 | 0.0 | 0.0 | 0.00 | 0.35 | 0.00 | 98 | 1013.0 |
| 20260903090540 | 68 | 0 | 0.0 | 0.0 | 0.00 | 0.35 | 0.00 | 98 | 1013.0 |
| 20260903090339 | 68 | 108 | 0.0 | 1.7 | 0.00 | 0.35 | 0.00 | 98 | 1013.0 |
| 20260903090139 | 68 | 108 | 0.0 | 1.7 | 0.00 | 0.35 | 0.00 | 98 | 1012.9 |
| 20260903085939 | 68 | 0 | 0.0 | 1.7 | 0.00 | 0.35 | 0.00 | 98 | 1013.0 |
| 20260903085738 | 68 | 108 | 0.0 | 2.6 | 0.00 | 0.35 | 0.00 | 98 | 1013.1 |
| 20260903085538 | 68 | 108 | 0.0 | 2.6 | 0.00 | 0.35 | 0.00 | 98 | 1013.0 |
| 20260903085338 | 68 | 108 | 0.0 | 2.6 | 0.00 | 0.35 | 0.00 | 98 | 1013.1 |
| 20260903085137 | 68 | 108 | 0.0 | 2.6 | 0.00 | 0.35 | 0.00 | 98 | 1013.0 |
| 20260903084937 | 68 | 111 | 0.0 | 2.6 | 0.00 | 0.35 | 0.00 | 98 | 1013.0 |
| 20260903084737 | 68 | 114 | 0.0 | 2.6 | 0.00 | 0.35 | 0.00 | 98 | 1013.0 |
| 20260903084536 | 68 | 133 | 0.0 | 2.6 | 0.00 | 0.35 | 0.00 | 98 | 1013.0 |
| 20260903084336 | 68 | 220 | 0.0 | 2.6 | 0.00 | 0.35 | 0.00 | 98 | 1012.9 |
| 20260903084136 | 68 | 220 | 0.0 | 1.7 | 0.00 | 0.35 | 0.00 | 98 | 1013.0 |
| 20260903083935 | 68 | 220 | 0.0 | 1.7 | 0.00 | 0.35 | 0.00 | 98 | 1013.0 |
| 20260903083735 | 68 | 153 | 0.0 | 1.7 | 0.00 | 0.35 | 0.00 | 98 | 1013.1 |
| 20260903083535 | 68 | 122 | 0.0 | 1.7 | 0.00 | 0.35 | 0.00 | 98 | 1013.0 |
| 20260903083335 | 68 | 122 | 0.0 | 1.7 | 0.00 | 0.35 | 0.00 | 98 | 1012.9 |
| 20260903083134 | 68 | 122 | 0.0 | 1.7 | 0.00 | 0.35 | 0.00 | 98 | 1012.9 |
| 20260903082934 | 68 | 122 | 0.0 | 2.6 | 0.00 | 0.35 | 0.00 | 98 | 1012.9 |
| 20260903082734 | 68 | 119 | 0.0 | 2.6 | 0.00 | 0.35 | 0.00 | 98 | 1013.0 |
| 20260903082533 | 68 | 29 | 0.0 | 2.6 | 0.00 | 0.35 | 0.00 | 98 | 1013.0 |
| 20260903082333 | 68 | 23 | 0.9 | 2.6 | 0.00 | 0.35 | 0.00 | 98 | 1012.9 |
| 20260903082133 | 68 | 42 | 0.0 | 3.5 | 0.00 | 0.35 | 0.00 | 98 | 1012.8 |
| 20260903081932 | 68 | 2 | 0.0 | 3.5 | 0.00 | 0.35 | 0.00 | 98 | 1012.8 |
| 20260903081732 | 68 | 345 | 0.0 | 3.5 | 0.00 | 0.35 | 0.00 | 98 | 1012.9 |
| 20260903081532 | 69 | 10 | 0.0 | 3.5 | 0.00 | 0.35 | 0.00 | 98 | 1013.0 |
| 20260903081331 | 69 | 16 | 0.9 | 3.5 | 0.00 | 0.35 | 0.00 | 98 | 1013.0 |
| 20260903081131 | 69 | 38 | 0.9 | 3.5 | 0.00 | 0.35 | 0.00 | 98 | 1013.1 |
| 20260903080931 | 69 | 70 | 0.0 | 3.5 | 0.00 | 0.35 | 0.00 | 98 | 1013.0 |
| 20260903080731 | 69 | 68 | 0.0 | 1.7 | 0.00 | 0.35 | 0.00 | 98 | 1013.0 |
| 20260903080530 | 69 | 68 | 0.0 | 1.7 | 0.00 | 0.35 | 0.00 | 98 | 1013.0 |
| 20260903080330 | 69 | 68 | 0.0 | 1.7 | 0.00 | 0.35 | 0.00 | 98 | 1013.0 |
| 20260903080130 | 69 | 68 | 0.0 | 1.7 | 0.00 | 0.35 | 0.00 | 98 | 1012.9 |
| 20260903075929 | 69 | 68 | 0.0 | 1.7 | 0.00 | 0.35 | 0.00 | 98 | 1012.9 |
| 20260903075729 | 69 | 68 | 0.0 | 1.7 | 0.00 | 0.35 | 0.00 | 98 | 1012.9 |
| 20260903075529 | 69 | 69 | 0.0 | 1.7 | 0.00 | 0.35 | 0.00 | 98 | 1012.9 |
| 20260903075328 | 69 | 69 | 0.0 | 1.7 | 0.00 | 0.35 | 0.00 | 98 | 1013.0 |
| 20260903075128 | 69 | 69 | 0.0 | 2.6 | 0.00 | 0.35 | 0.00 | 98 | 1013.0 |
| 20260903074928 | 70 | 70 | 0.0 | 3.5 | 0.00 | 0.35 | 0.00 | 98 | 1012.9 |
| 20260903074727 | 70 | 73 | 0.0 | 3.5 | 0.00 | 0.35 | 0.00 | 98 | 1012.9 |
| 20260903074527 | 70 | 80 | 0.0 | 3.5 | 0.00 | 0.35 | 0.00 | 98 | 1012.9 |
| 20260903074327 | 70 | 52 | 0.9 | 3.5 | 0.00 | 0.35 | 0.00 | 98 | 1012.9 |
| 20260903074126 | 70 | 32 | 0.9 | 3.5 | 0.00 | 0.35 | 0.00 | 98 | 1012.9 |
| 20260903073926 | 70 | 32 | 0.0 | 2.6 | 0.00 | 0.35 | 0.00 | 98 | 1012.8 |
| 20260903073726 | 70 | 36 | 0.9 | 2.6 | 0.00 | 0.35 | 0.00 | 98 | 1012.9 |
| 20260903073525 | 70 | 30 | 0.9 | 2.6 | 0.00 | 0.35 | 0.00 | 98 | 1012.9 |
| 20260903073325 | 70 | 22 | 0.0 | 2.6 | 0.00 | 0.35 | 0.00 | 98 | 1012.8 |
| 20260903073125 | 70 | 19 | 0.0 | 1.7 | 0.00 | 0.35 | 0.00 | 98 | 1012.8 |
| 20260903072925 | 70 | 19 | 0.0 | 1.7 | 0.00 | 0.35 | 0.00 | 98 | 1012.8 |
| 20260903072724 | 70 | 19 | 0.0 | 1.7 | 0.00 | 0.35 | 0.00 | 98 | 1012.8 |
| 20260903072524 | 70 | 70 | 0.0 | 2.6 | 0.00 | 0.35 | 0.00 | 98 | 1012.8 |
| 20260903072324 | 70 | 112 | 0.0 | 3.5 | 0.00 | 0.35 | 0.00 | 98 | 1012.8 |
| 20260903072123 | 70 | 63 | 0.0 | 3.5 | 0.00 | 0.35 | 0.00 | 98 | 1012.8 |
| 20260903071923 | 70 | 20 | 0.0 | 3.5 | 0.00 | 0.35 | 0.00 | 98 | 1012.7 |
| 20260903071723 | 70 | 16 | 0.9 | 3.5 | 0.00 | 0.35 | 0.00 | 98 | 1012.8 |
| 20260903071522 | 70 | 7 | 0.0 | 1.7 | 0.00 | 0.35 | 0.00 | 98 | 1012.9 |
| 20260903071322 | 70 | 7 | 0.0 | 1.7 | 0.00 | 0.35 | 0.00 | 98 | 1012.9 |
| 20260903071122 | 70 | 357 | 0.0 | 1.7 | 0.00 | 0.35 | 0.00 | 98 | 1012.9 |
| 20260903070921 | 70 | 349 | 0.0 | 1.7 | 0.00 | 0.35 | 0.00 | 98 | 1012.9 |
| 20260903070721 | 70 | 73 | 0.0 | 1.7 | 0.00 | 0.35 | 0.00 | 98 | 1012.9 |
| 20260903070521 | 70 | 125 | 0.0 | 1.7 | 0.00 | 0.35 | 0.00 | 98 | 1012.9 |
| 20260903070320 | 70 | 125 | 0.0 | 1.7 | 0.00 | 0.35 | 0.00 | 98 | 1012.9 |
| 20260903070120 | 70 | 125 | 0.0 | 0.9 | 0.00 | 0.35 | 0.00 | 98 | 1012.9 |
| 20260903065920 | 70 | 126 | 0.0 | 2.6 | 0.00 | 0.35 | 0.00 | 98 | 1012.8 |
| 20260903065720 | 70 | 127 | 0.0 | 2.6 | 0.00 | 0.35 | 0.00 | 98 | 1012.8 |
| 20260903065519 | 70 | 128 | 0.0 | 2.6 | 0.00 | 0.35 | 0.00 | 98 | 1012.8 |
| 20260903065319 | 70 | 128 | 0.0 | 2.6 | 0.00 | 0.35 | 0.00 | 98 | 1012.8 |
| 20260903065119 | 70 | 65 | 0.9 | 2.6 | 0.00 | 0.35 | 0.00 | 98 | 1012.7 |
| 20260903064918 | 70 | 66 | 0.9 | 2.6 | 0.00 | 0.35 | 0.00 | 98 | 1012.7 |
| 20260903064718 | 70 | 115 | 0.0 | 1.7 | 0.00 | 0.35 | 0.00 | 98 | 1012.7 |
| 20260903064518 | 70 | 116 | 0.0 | 2.6 | 0.00 | 0.35 | 0.00 | 98 | 1012.7 |
| 20260903064317 | 70 | 136 | 0.0 | 3.5 | 0.00 | 0.35 | 0.00 | 98 | 1012.7 |
| 20260903064117 | 70 | 255 | 0.0 | 3.5 | 0.00 | 0.35 | 0.00 | 98 | 1012.7 |
| 20260903063917 | 70 | 262 | 0.0 | 3.5 | 0.00 | 0.35 | 0.00 | 98 | 1012.7 |
| 20260903063716 | 70 | 226 | 0.9 | 3.5 | 0.00 | 0.35 | 0.00 | 98 | 1012.8 |
| 20260903063516 | 70 | 238 | 0.9 | 3.5 | 0.00 | 0.35 | 0.00 | 98 | 1012.8 |
| 20260903063316 | 70 | 235 | 0.9 | 3.5 | 0.00 | 0.35 | 0.00 | 98 | 1012.7 |
| 20260903063116 | 70 | 232 | 0.9 | 3.5 | 0.00 | 0.35 | 0.00 | 98 | 1012.7 |
| 20260903062915 | 70 | 200 | 0.9 | 3.5 | 0.00 | 0.35 | 0.00 | 99 | 1012.8 |
| 20260903062715 | 70 | 130 | 0.9 | 3.5 | 0.00 | 0.35 | 0.00 | 99 | 1012.7 |
| 20260903062515 | 70 | 273 | 0.9 | 3.5 | 0.00 | 0.35 | 0.00 | 99 | 1012.7 |
| 20260903062314 | 70 | 309 | 0.9 | 3.5 | 0.00 | 0.35 | 0.00 | 99 | 1012.6 |
| 20260903062114 | 70 | 234 | 0.9 | 3.5 | 0.00 | 0.35 | 0.00 | 99 | 1012.7 |
| 20260903061914 | 70 | 248 | 0.9 | 3.5 | 0.00 | 0.35 | 0.00 | 99 | 1012.7 |
| 20260903061713 | 70 | 277 | 0.0 | 4.3 | 0.00 | 0.35 | 0.00 | 99 | 1012.7 |
| 20260903061513 | 70 | 212 | 0.9 | 4.3 | 0.00 | 0.35 | 0.00 | 99 | 1012.7 |
| 20260903061313 | 70 | 112 | 0.9 | 4.3 | 0.00 | 0.35 | 0.00 | 99 | 1012.7 |
| 20260903061112 | 70 | 221 | 1.7 | 4.3 | 0.00 | 0.35 | 0.00 | 99 | 1012.7 |
| 20260903060912 | 70 | 254 | 1.7 | 4.3 | 0.00 | 0.35 | 0.00 | 99 | 1012.7 |
| 20260903060712 | 70 | 240 | 1.7 | 4.3 | 0.00 | 0.35 | 0.00 | 99 | 1012.6 |
| 20260903060512 | 70 | 245 | 0.9 | 4.3 | 0.00 | 0.35 | 0.00 | 99 | 1012.7 |
| 20260903060311 | 70 | 234 | 0.9 | 4.3 | 0.00 | 0.35 | 0.00 | 99 | 1012.7 |
| 20260903060111 | 70 | 69 | 0.9 | 3.5 | 0.00 | 0.35 | 0.00 | 99 | 1012.6 |
| 20260903055911 | 70 | 183 | 0.9 | 3.5 | 0.00 | 0.35 | 0.00 | 99 | 1012.7 |
| 20260903003217 | 68 | 209 | 1.7 | 5.2 | 0.05 | 0.34 | 0.34 | 98 | 1012.9 |
| 20260903003016 | 68 | 174 | 1.7 | 5.2 | 0.05 | 0.34 | 0.34 | 98 | 1012.9 |
| 20260903002816 | 68 | 204 | 0.9 | 3.5 | 0.05 | 0.34 | 0.34 | 98 | 1012.9 |
| 20260903002616 | 68 | 239 | 0.9 | 3.5 | 0.05 | 0.34 | 0.34 | 97 | 1013.0 |
| 20260903002415 | 68 | 240 | 0.9 | 3.5 | 0.05 | 0.34 | 0.34 | 97 | 1012.8 |
| 20260903002215 | 68 | 235 | 0.0 | 2.6 | 0.05 | 0.34 | 0.34 | 97 | 1012.4 |
| 20260903002015 | 69 | 210 | 0.0 | 2.6 | 0.03 | 0.32 | 0.32 | 97 | 1012.2 |
| 20260903001815 | 68 | 298 | 0.0 | 2.6 | 0.00 | 0.29 | 0.29 | 97 | 1012.5 |
| 20260903001614 | 68 | 276 | 0.9 | 2.6 | 0.00 | 0.29 | 0.29 | 97 | 1012.3 |
| 20260903001414 | 68 | 239 | 0.9 | 2.6 | 0.00 | 0.29 | 0.29 | 97 | 1011.7 |
| 20260903001214 | 68 | 235 | 0.0 | 2.6 | 0.00 | 0.29 | 0.29 | 96 | 1011.9 |
| 20260903001013 | 68 | 215 | 0.9 | 3.5 | 0.00 | 0.29 | 0.29 | 96 | 1012.2 |
| 20260903000813 | 68 | 228 | 0.0 | 3.5 | 0.00 | 0.29 | 0.29 | 96 | 1012.5 |
| 20260903000613 | 68 | 249 | 0.0 | 3.5 | 0.00 | 0.29 | 0.29 | 96 | 1012.6 |
| 20260903000412 | 68 | 238 | 0.9 | 3.5 | 0.00 | 0.29 | 0.29 | 96 | 1012.6 |
| 20260903000212 | 68 | 224 | 0.9 | 2.6 | 0.00 | 0.29 | 0.29 | 96 | 1012.7 |
| 20260903000012 | 68 | 248 | 0.9 | 3.5 | 0.00 | 0.29 | 0.29 | 96 | 1012.7 |
| 20260902235811 | 68 | 266 | 0.0 | 3.5 | 0.00 | 0.29 | 0.29 | 96 | 1012.8 |
| 20260902235611 | 68 | 73 | 0.0 | 3.5 | 0.00 | 0.29 | 0.29 | 97 | 1012.8 |
| 20260902235411 | 68 | 194 | 0.9 | 3.5 | 0.01 | 0.29 | 0.29 | 97 | 1012.7 |
| 20260902235210 | 68 | 262 | 0.0 | 3.5 | 0.01 | 0.29 | 0.29 | 97 | 1012.7 |
| 20260902235010 | 68 | 250 | 0.0 | 2.6 | 0.01 | 0.29 | 0.29 | 97 | 1012.7 |
| 20260902234810 | 68 | 229 | 0.0 | 3.5 | 0.01 | 0.29 | 0.29 | 97 | 1012.6 |
| 20260902234610 | 68 | 237 | 0.9 | 3.5 | 0.02 | 0.29 | 0.29 | 97 | 1012.6 |
| 20260902234409 | 68 | 237 | 0.9 | 5.2 | 0.02 | 0.29 | 0.29 | 97 | 1012.5 |
| 20260902234209 | 68 | 224 | 0.9 | 5.2 | 0.02 | 0.29 | 0.29 | 97 | 1012.6 |
| 20260902234009 | 68 | 178 | 0.9 | 5.2 | 0.02 | 0.29 | 0.29 | 97 | 1012.6 |
| 20260902233808 | 68 | 201 | 0.9 | 5.2 | 0.02 | 0.29 | 0.29 | 97 | 1012.6 |
| 20260902233608 | 68 | 197 | 1.7 | 5.2 | 0.02 | 0.29 | 0.29 | 97 | 1012.6 |
| 20260902233408 | 68 | 217 | 1.7 | 4.3 | 0.02 | 0.29 | 0.29 | 98 | 1012.6 |
| 20260902233207 | 68 | 211 | 1.7 | 6.1 | 0.03 | 0.29 | 0.29 | 98 | 1012.6 |
| 20260902233007 | 68 | 205 | 0.9 | 6.1 | 0.03 | 0.29 | 0.29 | 98 | 1012.6 |
| 20260902232807 | 68 | 234 | 1.7 | 6.1 | 0.03 | 0.29 | 0.29 | 98 | 1012.8 |
| 20260902232606 | 68 | 232 | 1.7 | 6.1 | 0.03 | 0.29 | 0.29 | 98 | 1012.8 |
| 20260902232406 | 68 | 229 | 1.7 | 6.1 | 0.03 | 0.29 | 0.29 | 98 | 1013.0 |
| 20260902232206 | 68 | 220 | 1.7 | 6.1 | 0.04 | 0.29 | 0.29 | 98 | 1013.0 |
| 20260902232006 | 68 | 225 | 1.7 | 6.1 | 0.04 | 0.29 | 0.29 | 98 | 1013.1 |
| 20260902231805 | 68 | 190 | 1.7 | 6.1 | 0.04 | 0.29 | 0.29 | 98 | 1012.9 |
| 20260902231605 | 68 | 216 | 0.9 | 5.2 | 0.04 | 0.29 | 0.29 | 98 | 1012.9 |
| 20260902231405 | 69 | 217 | 0.9 | 7.8 | 0.06 | 0.29 | 0.29 | 98 | 1012.9 |
| 20260902231204 | 69 | 229 | 0.0 | 7.8 | 0.07 | 0.29 | 0.29 | 98 | 1012.9 |
| 20260902231004 | 69 | 211 | 0.9 | 7.8 | 0.09 | 0.29 | 0.29 | 98 | 1013.1 |
| 20260902230804 | 69 | 227 | 0.9 | 7.8 | 0.16 | 0.29 | 0.29 | 98 | 1013.1 |
| 20260902230603 | 69 | 223 | 1.7 | 7.8 | 0.22 | 0.29 | 0.29 | 98 | 1013.1 |
| 20260902230403 | 69 | 217 | 1.7 | 5.2 | 0.24 | 0.29 | 0.29 | 97 | 1012.9 |
| 20260902230203 | 69 | 198 | 0.9 | 5.2 | 0.24 | 0.29 | 0.29 | 97 | 1012.8 |
| 20260902230002 | 69 | 222 | 0.9 | 5.2 | 0.24 | 0.29 | 0.29 | 97 | 1013.0 |
| 20260902225802 | 69 | 221 | 1.7 | 5.2 | 0.24 | 0.29 | 0.29 | 97 | 1013.1 |
| 20260902225602 | 69 | 211 | 0.9 | 5.2 | 0.24 | 0.29 | 0.29 | 97 | 1013.3 |
| 20260902225401 | 70 | 192 | 0.9 | 4.3 | 0.23 | 0.28 | 0.28 | 97 | 1013.4 |
| 20260902225201 | 70 | 225 | 0.9 | 4.3 | 0.23 | 0.28 | 0.28 | 97 | 1013.5 |
| 20260902225001 | 70 | 227 | 0.9 | 4.3 | 0.23 | 0.28 | 0.28 | 97 | 1013.6 |
| 20260902224800 | 70 | 221 | 0.0 | 4.3 | 0.22 | 0.27 | 0.27 | 97 | 1013.7 |
| 20260902224600 | 70 | 150 | 0.0 | 2.6 | 0.22 | 0.27 | 0.27 | 97 | 1013.7 |
| 20260902224400 | 70 | 163 | 0.0 | 2.6 | 0.22 | 0.27 | 0.27 | 97 | 1013.7 |
| 20260902224200 | 70 | 91 | 0.0 | 3.5 | 0.22 | 0.27 | 0.27 | 96 | 1013.8 |
| 20260902223959 | 70 | 64 | 0.0 | 10.4 | 0.22 | 0.27 | 0.27 | 96 | 1013.8 |
| 20260902223759 | 70 | 104 | 0.0 | 10.4 | 0.22 | 0.27 | 0.27 | 96 | 1013.9 |
| 20260902223559 | 70 | 90 | 0.9 | 10.4 | 0.22 | 0.27 | 0.27 | 96 | 1013.8 |
| 20260902223358 | 70 | 360 | 0.9 | 10.4 | 0.21 | 0.26 | 0.26 | 95 | 1013.9 |
| 20260902223158 | 70 | 4 | 1.7 | 10.4 | 0.21 | 0.26 | 0.26 | 95 | 1014.1 |
| 20260902222958 | 70 | 60 | 1.7 | 10.4 | 0.21 | 0.26 | 0.26 | 95 | 1014.3 |
| 20260902222757 | 70 | 358 | 2.6 | 11.3 | 0.21 | 0.26 | 0.26 | 95 | 1014.5 |
| 20260902222557 | 70 | 49 | 2.6 | 11.3 | 0.21 | 0.26 | 0.26 | 94 | 1014.4 |
| 20260902222357 | 70 | 211 | 3.5 | 11.3 | 0.20 | 0.25 | 0.25 | 94 | 1014.3 |
| 20260902222156 | 70 | 96 | 3.5 | 11.3 | 0.20 | 0.25 | 0.25 | 93 | 1014.1 |
| 20260902221956 | 70 | 179 | 4.3 | 11.3 | 0.20 | 0.25 | 0.25 | 92 | 1014.1 |
| 20260902221555 | 71 | 122 | 4.3 | 25.2 | 0.19 | 0.24 | 0.24 | 91 | 1014.5 |
| 20260902221355 | 72 | 92 | 5.2 | 25.2 | 0.18 | 0.23 | 0.23 | 90 | 1014.1 |
| 20260902221155 | 74 | 88 | 7.0 | 25.2 | 0.16 | 0.21 | 0.21 | 86 | 1015.0 |
| 20260902220955 | 76 | 106 | 8.7 | 25.2 | 0.11 | 0.16 | 0.16 | 83 | 1015.7 |
| 20260902220754 | 79 | 40 | 6.1 | 25.2 | 0.04 | 0.09 | 0.09 | 83 | 1016.2 |
| 20260902220554 | 81 | 333 | 3.5 | 10.4 | 0.00 | 0.05 | 0.05 | 87 | 1016.0 |
| 20260902220354 | 81 | 251 | 2.6 | 7.0 | 0.00 | 0.05 | 0.05 | 87 | 1014.8 |
| 20260902220153 | 81 | 185 | 1.7 | 6.1 | 0.00 | 0.05 | 0.05 | 86 | 1014.3 |
| 20260902215953 | 81 | 62 | 0.9 | 3.5 | 0.00 | 0.05 | 0.05 | 86 | 1013.8 |
| 20260902215753 | 81 | 74 | 0.9 | 3.5 | 0.00 | 0.05 | 0.05 | 86 | 1013.5 |
| 20260902215552 | 81 | 105 | 0.9 | 3.5 | 0.00 | 0.05 | 0.05 | 85 | 1013.2 |
| 20260902215352 | 81 | 139 | 0.9 | 4.3 | 0.00 | 0.05 | 0.05 | 85 | 1013.0 |
| 20260902215152 | 81 | 162 | 0.9 | 4.3 | 0.00 | 0.05 | 0.05 | 85 | 1012.6 |
| 20260902214951 | 81 | 244 | 0.9 | 5.2 | 0.00 | 0.05 | 0.05 | 85 | 1012.2 |
| 20260902214751 | 81 | 264 | 0.9 | 6.1 | 0.00 | 0.05 | 0.05 | 84 | 1012.1 |
| 20260902214551 | 81 | 219 | 1.7 | 7.0 | 0.00 | 0.05 | 0.05 | 84 | 1011.7 |
| 20260902214350 | 81 | 237 | 2.6 | 7.0 | 0.00 | 0.05 | 0.05 | 83 | 1011.3 |
| 20260902214150 | 82 | 229 | 2.6 | 7.0 | 0.00 | 0.05 | 0.05 | 83 | 1011.1 |
| 20260902213950 | 82 | 208 | 2.6 | 7.0 | 0.00 | 0.05 | 0.05 | 82 | 1010.6 |
| 20260902213750 | 82 | 196 | 2.6 | 7.0 | 0.00 | 0.05 | 0.05 | 82 | 1010.6 |
| 20260902213549 | 82 | 181 | 2.6 | 6.1 | 0.00 | 0.05 | 0.05 | 82 | 1010.9 |
| 20260902213349 | 82 | 206 | 3.5 | 6.1 | 0.00 | 0.05 | 0.05 | 82 | 1010.9 |
| 20260902213149 | 82 | 212 | 2.6 | 6.1 | 0.00 | 0.05 | 0.05 | 82 | 1010.9 |
| 20260902212948 | 83 | 230 | 2.6 | 6.1 | 0.00 | 0.05 | 0.05 | 82 | 1011.2 |
| 20260902212748 | 83 | 224 | 2.6 | 6.1 | 0.00 | 0.05 | 0.05 | 82 | 1011.1 |
| 20260902212548 | 83 | 221 | 2.6 | 6.1 | 0.00 | 0.05 | 0.05 | 82 | 1011.1 |
| 20260902212347 | 83 | 234 | 2.6 | 6.1 | 0.00 | 0.05 | 0.05 | 82 | 1011.0 |
| 20260902212147 | 83 | 237 | 2.6 | 6.1 | 0.00 | 0.05 | 0.05 | 83 | 1011.0 |
| 20260902211947 | 83 | 234 | 2.6 | 6.1 | 0.00 | 0.05 | 0.05 | 83 | 1010.9 |
| 20260902211746 | 84 | 224 | 2.6 | 6.1 | 0.00 | 0.05 | 0.05 | 83 | 1011.0 |
| 20260902211546 | 84 | 234 | 2.6 | 8.7 | 0.00 | 0.05 | 0.05 | 82 | 1011.0 |
| 20260902211346 | 84 | 230 | 1.7 | 8.7 | 0.00 | 0.05 | 0.05 | 82 | 1011.0 |
| 20260902211145 | 84 | 235 | 2.6 | 8.7 | 0.00 | 0.05 | 0.05 | 82 | 1010.9 |
| 20260902210945 | 84 | 227 | 3.5 | 8.7 | 0.00 | 0.05 | 0.05 | 82 | 1010.8 |
| 20260902210745 | 84 | 217 | 4.3 | 8.7 | 0.00 | 0.05 | 0.05 | 82 | 1010.7 |
| 20260902210545 | 84 | 217 | 3.5 | 8.7 | 0.00 | 0.05 | 0.05 | 82 | 1010.7 |
| 20260902210344 | 85 | 228 | 2.6 | 7.0 | 0.00 | 0.05 | 0.05 | 83 | 1010.9 |
| 20260902210144 | 85 | 222 | 2.6 | 7.0 | 0.00 | 0.05 | 0.05 | 83 | 1011.0 |
| 20260902205944 | 85 | 240 | 2.6 | 7.0 | 0.00 | 0.05 | 0.05 | 84 | 1011.1 |
| 20260902205743 | 85 | 202 | 1.7 | 5.2 | 0.00 | 0.05 | 0.05 | 84 | 1011.1 |
| 20260902205543 | 85 | 198 | 1.7 | 6.1 | 0.00 | 0.05 | 0.05 | 83 | 1011.2 |
| 20260902205343 | 86 | 231 | 2.6 | 6.1 | 0.00 | 0.05 | 0.05 | 83 | 1011.2 |
| 20260902205142 | 86 | 222 | 2.6 | 7.8 | 0.00 | 0.05 | 0.05 | 82 | 1011.1 |
| 20260902204942 | 86 | 226 | 2.6 | 7.8 | 0.00 | 0.05 | 0.05 | 81 | 1011.1 |
| 20260902204742 | 86 | 233 | 1.7 | 7.8 | 0.00 | 0.05 | 0.05 | 81 | 1011.2 |
| 20260902204541 | 86 | 228 | 2.6 | 7.8 | 0.00 | 0.05 | 0.05 | 82 | 1011.3 |
| 20260902204341 | 86 | 201 | 3.5 | 7.8 | 0.00 | 0.05 | 0.05 | 82 | 1011.4 |
| 20260902204141 | 86 | 201 | 3.5 | 7.8 | 0.00 | 0.05 | 0.05 | 82 | 1011.5 |
| 20260902203940 | 86 | 226 | 1.7 | 7.0 | 0.00 | 0.05 | 0.05 | 82 | 1011.5 |
| 20260902203740 | 86 | 202 | 2.6 | 7.0 | 0.00 | 0.05 | 0.05 | 83 | 1011.5 |
| 20260902203540 | 86 | 218 | 2.6 | 7.8 | 0.00 | 0.05 | 0.05 | 83 | 1011.6 |
| 20260902203340 | 86 | 237 | 2.6 | 7.8 | 0.00 | 0.05 | 0.05 | 82 | 1011.7 |
| 20260902203139 | 86 | 228 | 2.6 | 8.7 | 0.00 | 0.05 | 0.05 | 82 | 1011.8 |
| 20260902202939 | 86 | 209 | 3.5 | 8.7 | 0.00 | 0.05 | 0.05 | 82 | 1011.7 |
| 20260902202739 | 86 | 208 | 3.5 | 8.7 | 0.00 | 0.05 | 0.05 | 82 | 1011.8 |
| 20260902202538 | 86 | 236 | 2.6 | 8.7 | 0.00 | 0.05 | 0.05 | 83 | 1011.8 |
| 20260902202338 | 86 | 236 | 4.3 | 8.7 | 0.00 | 0.05 | 0.05 | 83 | 1011.8 |
| 20260902202138 | 86 | 233 | 3.5 | 8.7 | 0.00 | 0.05 | 0.05 | 82 | 1011.9 |
| 20260902201937 | 86 | 227 | 3.5 | 6.1 | 0.00 | 0.05 | 0.05 | 82 | 1011.9 |
| 20260902201737 | 86 | 231 | 2.6 | 10.4 | 0.00 | 0.05 | 0.05 | 84 | 1011.8 |
| 20260902201537 | 86 | 221 | 2.6 | 10.4 | 0.00 | 0.05 | 0.05 | 84 | 1011.7 |
| 20260902201336 | 86 | 227 | 3.5 | 10.4 | 0.00 | 0.05 | 0.05 | 84 | 1011.8 |
| 20260902201136 | 86 | 213 | 4.3 | 10.4 | 0.00 | 0.05 | 0.05 | 84 | 1011.8 |
| 20260902200936 | 86 | 215 | 4.3 | 10.4 | 0.00 | 0.05 | 0.05 | 84 | 1011.9 |
| 20260902200735 | 86 | 213 | 3.5 | 8.7 | 0.00 | 0.05 | 0.05 | 84 | 1012.0 |
| 20260902200535 | 86 | 215 | 3.5 | 8.7 | 0.00 | 0.05 | 0.05 | 84 | 1012.2 |
| 20260902200335 | 85 | 208 | 2.6 | 8.7 | 0.00 | 0.05 | 0.05 | 85 | 1012.2 |
| 20260902200134 | 85 | 220 | 3.5 | 6.1 | 0.00 | 0.05 | 0.05 | 85 | 1012.3 |
| 20260902195934 | 85 | 225 | 3.5 | 6.1 | 0.00 | 0.05 | 0.05 | 86 | 1012.4 |
| 20260902195734 | 85 | 215 | 3.5 | 6.1 | 0.00 | 0.05 | 0.05 | 86 | 1012.5 |
| 20260902195534 | 84 | 216 | 2.6 | 6.1 | 0.00 | 0.05 | 0.05 | 86 | 1012.4 |
| 20260902195333 | 84 | 217 | 2.6 | 6.1 | 0.00 | 0.05 | 0.05 | 88 | 1012.4 |
| 20260902195133 | 83 | 223 | 1.7 | 6.1 | 0.00 | 0.05 | 0.05 | 88 | 1012.6 |
| 20260902194933 | 83 | 219 | 2.6 | 5.2 | 0.00 | 0.05 | 0.05 | 88 | 1012.7 |
| 20260902194732 | 83 | 220 | 2.6 | 5.2 | 0.00 | 0.05 | 0.05 | 89 | 1012.6 |
| 20260902194532 | 82 | 227 | 2.6 | 5.2 | 0.00 | 0.05 | 0.05 | 89 | 1012.7 |
| 20260902194332 | 82 | 222 | 2.6 | 5.2 | 0.00 | 0.05 | 0.05 | 89 | 1012.8 |
| 20260902194131 | 82 | 227 | 2.6 | 5.2 | 0.00 | 0.05 | 0.05 | 89 | 1012.8 |
| 20260902193931 | 82 | 221 | 2.6 | 5.2 | 0.00 | 0.05 | 0.05 | 89 | 1012.8 |
| 20260902193731 | 82 | 223 | 2.6 | 4.3 | 0.00 | 0.05 | 0.05 | 89 | 1012.9 |
| 20260902193530 | 82 | 243 | 1.7 | 4.3 | 0.00 | 0.05 | 0.05 | 89 | 1013.1 |
| 20260902193330 | 82 | 259 | 0.0 | 4.3 | 0.00 | 0.05 | 0.05 | 89 | 1013.2 |
| 20260902193130 | 82 | 252 | 0.9 | 4.3 | 0.00 | 0.05 | 0.05 | 89 | 1013.2 |
| 20260902192930 | 82 | 234 | 0.9 | 4.3 | 0.00 | 0.05 | 0.05 | 88 | 1013.2 |
| 20260902192729 | 82 | 237 | 0.9 | 4.3 | 0.00 | 0.05 | 0.05 | 88 | 1013.3 |
| 20260902192529 | 82 | 207 | 0.9 | 4.3 | 0.00 | 0.05 | 0.05 | 88 | 1013.4 |
| 20260902192329 | 82 | 194 | 0.9 | 4.3 | 0.00 | 0.05 | 0.05 | 88 | 1013.5 |
| 20260902192128 | 82 | 231 | 1.7 | 4.3 | 0.00 | 0.05 | 0.05 | 88 | 1013.5 |
| 20260902191928 | 82 | 238 | 0.0 | 4.3 | 0.00 | 0.05 | 0.05 | 88 | 1013.5 |
| 20260902191728 | 83 | 226 | 0.0 | 5.2 | 0.00 | 0.05 | 0.05 | 88 | 1013.5 |
| 20260902191527 | 83 | 223 | 0.9 | 5.2 | 0.00 | 0.05 | 0.05 | 88 | 1013.5 |
| 20260902191327 | 83 | 219 | 0.9 | 5.2 | 0.00 | 0.05 | 0.05 | 87 | 1013.6 |
| 20260902191127 | 83 | 228 | 0.9 | 5.2 | 0.00 | 0.05 | 0.05 | 87 | 1013.7 |
| 20260902190926 | 83 | 230 | 1.7 | 5.2 | 0.00 | 0.05 | 0.05 | 87 | 1013.6 |
| 20260902190726 | 83 | 215 | 0.9 | 3.5 | 0.00 | 0.05 | 0.05 | 86 | 1013.7 |
| 20260902190526 | 83 | 221 | 0.9 | 3.5 | 0.00 | 0.05 | 0.05 | 86 | 1013.6 |
| 20260902190326 | 83 | 216 | 1.7 | 3.5 | 0.00 | 0.05 | 0.05 | 86 | 1013.6 |
| 20260902190125 | 83 | 240 | 1.7 | 4.3 | 0.00 | 0.05 | 0.05 | 86 | 1013.5 |
| 20260902185925 | 84 | 247 | 0.9 | 4.3 | 0.00 | 0.05 | 0.05 | 86 | 1013.6 |
| 20260902185725 | 84 | 252 | 1.7 | 4.3 | 0.00 | 0.05 | 0.05 | 85 | 1013.6 |
| 20260902185524 | 84 | 240 | 1.7 | 4.3 | 0.00 | 0.05 | 0.05 | 85 | 1013.7 |
| 20260902185324 | 84 | 208 | 1.7 | 3.5 | 0.00 | 0.05 | 0.05 | 85 | 1013.9 |
| 20260902185124 | 84 | 226 | 1.7 | 4.3 | 0.00 | 0.05 | 0.05 | 85 | 1013.9 |
| 20260902184923 | 84 | 232 | 1.7 | 4.3 | 0.00 | 0.05 | 0.05 | 84 | 1013.9 |
| 20260902184723 | 84 | 168 | 0.9 | 4.3 | 0.00 | 0.05 | 0.05 | 84 | 1013.8 |
| 20260902184523 | 85 | 196 | 1.7 | 6.1 | 0.00 | 0.05 | 0.05 | 84 | 1013.8 |
| 20260902184322 | 85 | 208 | 1.7 | 6.1 | 0.00 | 0.05 | 0.05 | 83 | 1013.8 |
| 20260902184122 | 85 | 223 | 1.7 | 6.1 | 0.00 | 0.05 | 0.05 | 83 | 1013.8 |
| 20260902183922 | 85 | 216 | 2.6 | 6.1 | 0.00 | 0.05 | 0.05 | 83 | 1013.7 |
| 20260902183721 | 86 | 196 | 3.5 | 6.1 | 0.00 | 0.05 | 0.05 | 82 | 1013.7 |
| 20260902183521 | 86 | 215 | 1.7 | 6.1 | 0.00 | 0.05 | 0.05 | 82 | 1013.6 |
| 20260902183321 | 86 | 254 | 1.7 | 5.2 | 0.00 | 0.05 | 0.05 | 82 | 1013.6 |
| 20260902183121 | 86 | 229 | 1.7 | 5.2 | 0.00 | 0.05 | 0.05 | 81 | 1013.7 |
| 20260902182920 | 86 | 201 | 1.7 | 5.2 | 0.00 | 0.05 | 0.05 | 81 | 1013.8 |
| 20260902182720 | 87 | 208 | 2.6 | 5.2 | 0.00 | 0.05 | 0.05 | 80 | 1013.9 |
| 20260902182520 | 87 | 236 | 1.7 | 5.2 | 0.00 | 0.05 | 0.05 | 80 | 1013.9 |
| 20260902182319 | 87 | 235 | 1.7 | 7.0 | 0.00 | 0.05 | 0.05 | 81 | 1013.7 |
| 20260902182119 | 87 | 225 | 2.6 | 7.0 | 0.00 | 0.05 | 0.05 | 82 | 1013.9 |
| 20260902181919 | 86 | 224 | 2.6 | 7.0 | 0.00 | 0.05 | 0.05 | 82 | 1013.9 |
| 20260902181718 | 86 | 224 | 2.6 | 7.0 | 0.00 | 0.05 | 0.05 | 82 | 1013.9 |
| 20260902181518 | 86 | 194 | 3.5 | 7.0 | 0.00 | 0.05 | 0.05 | 81 | 1013.9 |
| 20260902181318 | 86 | 227 | 2.6 | 7.0 | 0.00 | 0.05 | 0.05 | 81 | 1013.8 |
| 20260902181118 | 86 | 222 | 2.6 | 7.0 | 0.00 | 0.05 | 0.05 | 82 | 1013.8 |
| 20260902180917 | 86 | 216 | 2.6 | 7.0 | 0.00 | 0.05 | 0.05 | 82 | 1013.7 |
| 20260902180717 | 86 | 197 | 2.6 | 7.8 | 0.00 | 0.05 | 0.05 | 82 | 1013.6 |
| 20260902180517 | 86 | 199 | 3.5 | 7.8 | 0.00 | 0.05 | 0.05 | 82 | 1013.4 |
| 20260902180316 | 86 | 218 | 2.6 | 7.8 | 0.00 | 0.05 | 0.05 | 82 | 1013.4 |
| 20260902180116 | 86 | 212 | 3.5 | 7.8 | 0.00 | 0.05 | 0.05 | 83 | 1013.4 |
| 20260902175916 | 86 | 220 | 4.3 | 7.8 | 0.00 | 0.05 | 0.05 | 83 | 1013.3 |
| 20260902175715 | 85 | 200 | 3.5 | 6.1 | 0.00 | 0.05 | 0.05 | 83 | 1013.2 |
| 20260902175515 | 85 | 207 | 3.5 | 7.0 | 0.00 | 0.05 | 0.05 | 83 | 1013.2 |
| 20260902175315 | 85 | 226 | 2.6 | 10.4 | 0.00 | 0.05 | 0.05 | 84 | 1013.2 |
| 20260902175114 | 85 | 223 | 1.7 | 11.3 | 0.00 | 0.05 | 0.05 | 84 | 1013.2 |
| 20260902174914 | 84 | 210 | 2.6 | 11.3 | 0.00 | 0.05 | 0.05 | 84 | 1013.3 |
| 20260902174714 | 84 | 228 | 3.5 | 11.3 | 0.00 | 0.05 | 0.05 | 84 | 1013.3 |
| 20260902174513 | 84 | 231 | 3.5 | 11.3 | 0.00 | 0.05 | 0.05 | 84 | 1013.4 |
| 20260902174313 | 84 | 227 | 2.6 | 10.4 | 0.00 | 0.05 | 0.05 | 84 | 1013.4 |
| 20260902174113 | 84 | 222 | 3.5 | 10.4 | 0.00 | 0.05 | 0.05 | 84 | 1013.4 |
| 20260902173912 | 84 | 215 | 2.6 | 8.7 | 0.00 | 0.05 | 0.05 | 85 | 1013.4 |
| 20260902173712 | 84 | 222 | 4.3 | 8.7 | 0.00 | 0.05 | 0.05 | 85 | 1013.5 |
| 20260902173512 | 83 | 209 | 3.5 | 7.0 | 0.00 | 0.05 | 0.05 | 86 | 1013.4 |
| 20260902173312 | 83 | 184 | 2.6 | 8.7 | 0.00 | 0.05 | 0.05 | 86 | 1013.6 |
| 20260902173111 | 83 | 180 | 1.7 | 8.7 | 0.00 | 0.05 | 0.05 | 86 | 1013.7 |
| 20260902172911 | 83 | 232 | 1.7 | 8.7 | 0.00 | 0.05 | 0.05 | 86 | 1013.7 |
| 20260902172711 | 82 | 213 | 3.5 | 8.7 | 0.00 | 0.05 | 0.05 | 86 | 1013.8 |
| 20260902172510 | 82 | 226 | 3.5 | 9.6 | 0.00 | 0.05 | 0.05 | 86 | 1013.9 |
| 20260902172310 | 82 | 238 | 1.7 | 9.6 | 0.00 | 0.05 | 0.05 | 87 | 1013.9 |
| 20260902172110 | 82 | 228 | 2.6 | 9.6 | 0.00 | 0.05 | 0.05 | 87 | 1014.0 |
| 20260902171909 | 82 | 217 | 3.5 | 9.6 | 0.00 | 0.05 | 0.05 | 87 | 1014.1 |
| 20260902171709 | 82 | 223 | 1.7 | 7.8 | 0.00 | 0.05 | 0.05 | 87 | 1014.1 |
| 20260902171509 | 82 | 226 | 3.5 | 9.6 | 0.00 | 0.05 | 0.05 | 87 | 1014.1 |
| 20260902171308 | 82 | 195 | 2.6 | 9.6 | 0.00 | 0.05 | 0.05 | 86 | 1014.3 |
| 20260902171108 | 82 | 212 | 2.6 | 9.6 | 0.00 | 0.05 | 0.05 | 86 | 1014.2 |
| 20260902170908 | 82 | 213 | 3.5 | 9.6 | 0.00 | 0.05 | 0.05 | 86 | 1014.1 |
| 20260902170707 | 82 | 250 | 1.7 | 9.6 | 0.00 | 0.05 | 0.05 | 87 | 1014.1 |
| 20260902170507 | 82 | 284 | 1.7 | 7.0 | 0.00 | 0.05 | 0.05 | 87 | 1014.2 |
| 20260902170307 | 82 | 251 | 2.6 | 7.0 | 0.00 | 0.05 | 0.05 | 86 | 1014.3 |
| 20260902170107 | 82 | 206 | 1.7 | 7.0 | 0.00 | 0.05 | 0.05 | 87 | 1014.3 |
| 20260902165906 | 82 | 201 | 3.5 | 7.0 | 0.00 | 0.05 | 0.05 | 87 | 1014.4 |
| 20260902165706 | 82 | 217 | 2.6 | 7.0 | 0.00 | 0.05 | 0.05 | 87 | 1014.3 |
| 20260902165506 | 82 | 233 | 1.7 | 7.0 | 0.00 | 0.05 | 0.05 | 88 | 1014.3 |
| 20260902165309 | 81 | 215 | 1.7 | 7.0 | 0.00 | 0.05 | 0.05 | 88 | 1014.3 |
| 20260902165105 | 81 | 202 | 2.6 | 7.0 | 0.00 | 0.05 | 0.05 | 88 | 1014.4 |
| 20260902164905 | 81 | 215 | 2.6 | 7.0 | 0.00 | 0.05 | 0.05 | 88 | 1014.6 |
| 20260902164704 | 81 | 224 | 2.6 | 6.1 | 0.00 | 0.05 | 0.05 | 90 | 1014.6 |
| 20260902164504 | 80 | 225 | 3.5 | 6.1 | 0.00 | 0.05 | 0.05 | 89 | 1014.7 |
| 20260902164304 | 80 | 218 | 1.7 | 6.1 | 0.00 | 0.05 | 0.05 | 90 | 1014.8 |
| 20260902164103 | 80 | 207 | 2.6 | 6.1 | 0.00 | 0.05 | 0.05 | 90 | 1014.8 |
| 20260902163903 | 80 | 220 | 2.6 | 6.1 | 0.00 | 0.05 | 0.05 | 90 | 1014.8 |
| 20260902163703 | 80 | 235 | 1.7 | 6.1 | 0.00 | 0.05 | 0.05 | 91 | 1014.8 |
| 20260902163503 | 79 | 226 | 1.7 | 6.1 | 0.00 | 0.05 | 0.05 | 91 | 1014.9 |
| 20260902163302 | 79 | 202 | 2.6 | 6.1 | 0.00 | 0.05 | 0.05 | 91 | 1014.9 |
| 20260902163102 | 79 | 191 | 2.6 | 6.1 | 0.00 | 0.05 | 0.05 | 90 | 1014.9 |
| 20260902162902 | 79 | 229 | 2.6 | 6.1 | 0.00 | 0.05 | 0.05 | 90 | 1015.0 |
| 20260902162701 | 79 | 189 | 2.6 | 6.1 | 0.00 | 0.05 | 0.05 | 90 | 1015.0 |
| 20260902162501 | 79 | 173 | 1.7 | 6.1 | 0.00 | 0.05 | 0.05 | 91 | 1015.0 |
| 20260902162301 | 79 | 214 | 1.7 | 5.2 | 0.00 | 0.05 | 0.05 | 92 | 1015.1 |
| 20260902162100 | 78 | 256 | 1.7 | 5.2 | 0.00 | 0.05 | 0.05 | 93 | 1015.1 |
| 20260902161900 | 78 | 261 | 1.7 | 4.3 | 0.00 | 0.05 | 0.05 | 93 | 1015.0 |
| 20260902161700 | 78 | 235 | 0.9 | 5.2 | 0.00 | 0.05 | 0.05 | 94 | 1015.1 |
| 20260902161459 | 77 | 209 | 0.9 | 5.2 | 0.00 | 0.05 | 0.05 | 95 | 1015.0 |
| 20260902161259 | 77 | 230 | 1.7 | 5.2 | 0.00 | 0.05 | 0.05 | 95 | 1015.0 |
| 20260902161059 | 76 | 226 | 1.7 | 5.2 | 0.00 | 0.05 | 0.05 | 95 | 1015.0 |
| 20260902160858 | 76 | 181 | 0.9 | 5.2 | 0.00 | 0.05 | 0.05 | 96 | 1015.1 |
| 20260902160658 | 76 | 197 | 1.7 | 4.3 | 0.00 | 0.05 | 0.05 | 96 | 1015.1 |
| 20260902160458 | 76 | 234 | 0.9 | 4.3 | 0.01 | 0.05 | 0.05 | 95 | 1015.2 |
| 20260902160258 | 76 | 228 | 1.7 | 4.3 | 0.02 | 0.05 | 0.05 | 96 | 1015.2 |
| 20260902160057 | 75 | 202 | 1.7 | 4.3 | 0.05 | 0.05 | 0.05 | 96 | 1015.2 |
| 20260902155857 | 75 | 249 | 1.7 | 4.3 | 0.05 | 0.05 | 0.05 | 96 | 1015.3 |
| 20260902155657 | 75 | 214 | 1.7 | 4.3 | 0.05 | 0.05 | 0.05 | 96 | 1015.2 |
| 20260902155456 | 75 | 197 | 1.7 | 4.3 | 0.05 | 0.05 | 0.05 | 96 | 1015.2 |
| 20260902155256 | 75 | 195 | 1.7 | 4.3 | 0.05 | 0.05 | 0.05 | 97 | 1015.2 |
| 20260902155056 | 75 | 220 | 1.7 | 4.3 | 0.05 | 0.05 | 0.05 | 97 | 1015.2 |
| 20260902154855 | 75 | 239 | 0.9 | 4.3 | 0.05 | 0.05 | 0.05 | 97 | 1015.2 |
| 20260902154655 | 75 | 243 | 0.9 | 4.3 | 0.05 | 0.05 | 0.05 | 97 | 1015.2 |
| 20260902154455 | 74 | 222 | 1.7 | 4.3 | 0.05 | 0.05 | 0.05 | 97 | 1015.1 |
| 20260902154254 | 74 | 225 | 1.7 | 5.2 | 0.05 | 0.05 | 0.05 | 97 | 1015.1 |
| 20260902154054 | 74 | 230 | 0.9 | 5.2 | 0.05 | 0.05 | 0.05 | 97 | 1015.1 |
| 20260902153854 | 74 | 217 | 0.9 | 5.2 | 0.05 | 0.05 | 0.05 | 97 | 1015.1 |
| 20260902153653 | 74 | 238 | 1.7 | 5.2 | 0.05 | 0.05 | 0.05 | 98 | 1015.0 |
| 20260902153453 | 74 | 254 | 1.7 | 5.2 | 0.05 | 0.05 | 0.05 | 98 | 1015.0 |
| 20260902153253 | 74 | 235 | 0.9 | 3.5 | 0.05 | 0.05 | 0.05 | 98 | 1015.0 |
| 20260902153052 | 74 | 229 | 1.7 | 5.2 | 0.05 | 0.05 | 0.05 | 98 | 1015.1 |
| 20260902152852 | 74 | 224 | 0.9 | 5.2 | 0.05 | 0.05 | 0.05 | 98 | 1015.0 |
| 20260902152652 | 74 | 225 | 0.9 | 5.2 | 0.05 | 0.05 | 0.05 | 98 | 1015.1 |
| 20260902152452 | 74 | 210 | 1.7 | 6.1 | 0.05 | 0.05 | 0.05 | 97 | 1015.0 |
| 20260902152251 | 74 | 204 | 2.6 | 6.1 | 0.05 | 0.05 | 0.05 | 97 | 1015.1 |
| 20260902152051 | 74 | 214 | 1.7 | 6.1 | 0.05 | 0.05 | 0.05 | 97 | 1015.1 |
| 20260902151851 | 74 | 217 | 1.7 | 6.1 | 0.05 | 0.05 | 0.05 | 97 | 1015.0 |
| 20260902151650 | 74 | 215 | 2.6 | 6.1 | 0.05 | 0.05 | 0.05 | 97 | 1015.0 |
| 20260902151450 | 74 | 211 | 0.9 | 6.1 | 0.05 | 0.05 | 0.05 | 97 | 1015.0 |
| 20260902151250 | 75 | 213 | 1.7 | 4.3 | 0.05 | 0.05 | 0.05 | 97 | 1015.0 |
| 20260902151049 | 75 | 220 | 1.7 | 4.3 | 0.05 | 0.05 | 0.05 | 97 | 1015.0 |
| 20260902150849 | 75 | 215 | 2.6 | 4.3 | 0.05 | 0.05 | 0.05 | 96 | 1015.0 |
| 20260902150649 | 75 | 225 | 1.7 | 4.3 | 0.05 | 0.05 | 0.05 | 96 | 1015.0 |
| 20260902150448 | 76 | 205 | 0.0 | 4.3 | 0.04 | 0.04 | 0.04 | 96 | 1014.8 |
| 20260902150248 | 76 | 218 | 0.9 | 4.3 | 0.03 | 0.03 | 0.03 | 96 | 1014.6 |
| 20260902150048 | 76 | 237 | 0.9 | 4.3 | 0.00 | 0.00 | 0.00 | 96 | 1014.8 |
| 20260902145848 | 76 | 238 | 0.9 | 1.7 | 0.00 | 0.00 | 0.00 | 96 | 1015.2 |
| 20260902145647 | 76 | 238 | 0.9 | 1.7 | 0.00 | 0.00 | 0.00 | 96 | 1015.3 |
| 20260902145447 | 76 | 239 | 0.9 | 1.7 | 0.00 | 0.00 | 0.00 | 96 | 1015.2 |
| 20260902145247 | 76 | 233 | 0.0 | 2.6 | 0.00 | 0.00 | 0.00 | 96 | 1015.3 |
| 20260902145046 | 76 | 229 | 0.9 | 2.6 | 0.00 | 0.00 | 0.00 | 96 | 1015.3 |
| 20260902144846 | 76 | 228 | 0.0 | 2.6 | 0.00 | 0.00 | 0.00 | 96 | 1015.2 |
| 20260902144646 | 76 | 228 | 0.9 | 2.6 | 0.00 | 0.00 | 0.00 | 96 | 1015.2 |
| 20260902144445 | 76 | 228 | 0.9 | 2.6 | 0.00 | 0.00 | 0.00 | 96 | 1015.2 |
| 20260902144245 | 76 | 228 | 0.9 | 2.6 | 0.00 | 0.00 | 0.00 | 96 | 1015.3 |
| 20260902144045 | 76 | 228 | 0.9 | 1.7 | 0.00 | 0.00 | 0.00 | 96 | 1015.3 |
| 20260902143844 | 76 | 228 | 0.0 | 1.7 | 0.00 | 0.00 | 0.00 | 96 | 1015.3 |
| 20260902143644 | 75 | 228 | 0.9 | 1.7 | 0.00 | 0.00 | 0.00 | 96 | 1015.1 |
| 20260902143444 | 75 | 228 | 0.0 | 1.7 | 0.00 | 0.00 | 0.00 | 96 | 1015.1 |
| 20260902143243 | 75 | 228 | 0.0 | 0.9 | 0.00 | 0.00 | 0.00 | 97 | 1015.0 |
| 20260902143043 | 75 | 0 | 0.0 | 1.7 | 0.00 | 0.00 | 0.00 | 97 | 1015.1 |
| 20260902142843 | 75 | 228 | 0.0 | 1.7 | 0.00 | 0.00 | 0.00 | 97 | 1015.0 |
| 20260902142643 | 75 | 228 | 0.0 | 1.7 | 0.00 | 0.00 | 0.00 | 97 | 1015.0 |
| 20260902142442 | 75 | 228 | 0.0 | 1.7 | 0.00 | 0.00 | 0.00 | 97 | 1015.1 |
| 20260902142242 | 75 | 228 | 0.9 | 1.7 | 0.00 | 0.00 | 0.00 | 97 | 1015.1 |
| 20260902142042 | 75 | 228 | 0.0 | 1.7 | 0.00 | 0.00 | 0.00 | 98 | 1015.2 |
| 20260902141841 | 75 | 228 | 0.0 | 0.9 | 0.00 | 0.00 | 0.00 | 98 | 1015.2 |
| 20260902141641 | 74 | 228 | 0.0 | 3.5 | 0.00 | 0.00 | 0.00 | 98 | 1015.2 |
| 20260902141441 | 74 | 227 | 0.0 | 3.5 | 0.00 | 0.00 | 0.00 | 98 | 1015.2 |
| 20260902141240 | 74 | 227 | 0.0 | 3.5 | 0.00 | 0.00 | 0.00 | 98 | 1015.3 |
| 20260902141040 | 74 | 223 | 0.0 | 3.5 | 0.00 | 0.00 | 0.00 | 98 | 1015.2 |
| 20260902140840 | 74 | 221 | 0.9 | 3.5 | 0.00 | 0.00 | 0.00 | 98 | 1015.2 |
| 20260902140639 | 74 | 227 | 0.0 | 3.5 | 0.00 | 0.00 | 0.00 | 99 | 1015.3 |
| 20260902140439 | 74 | 0 | 0.0 | 0.9 | 0.00 | 0.00 | 0.00 | 99 | 1015.3 |
| 20260902140239 | 74 | 227 | 0.0 | 0.9 | 0.00 | 0.00 | 0.00 | 99 | 1015.3 |
| 20260902140038 | 74 | 78 | 0.0 | 1.7 | 0.00 | 0.00 | 0.00 | 99 | 1015.3 |
| 20260902135838 | 73 | 73 | 0.0 | 1.7 | 0.00 | 0.00 | 0.00 | 99 | 1015.3 |
| 20260902135638 | 73 | 0 | 0.0 | 1.7 | 0.00 | 0.00 | 0.00 | 99 | 1015.3 |
| 20260902135438 | 73 | 0 | 0.0 | 1.7 | 0.00 | 0.00 | 0.00 | 99 | 1015.3 |
| 20260902135237 | 73 | 72 | 0.0 | 1.7 | 0.00 | 0.00 | 0.00 | 99 | 1015.2 |
| 20260902135037 | 73 | 62 | 0.0 | 1.7 | 0.00 | 0.00 | 0.00 | 100 | 1015.2 |
| 20260902134837 | 73 | 72 | 0.0 | 1.7 | 0.00 | 0.00 | 0.00 | 99 | 1015.2 |
| 20260902134636 | 73 | 230 | 0.0 | 1.7 | 0.00 | 0.00 | 0.00 | 100 | 1015.2 |
| 20260902134436 | 73 | 240 | 0.0 | 1.7 | 0.00 | 0.00 | 0.00 | 100 | 1015.2 |
| 20260902134236 | 73 | 253 | 0.0 | 1.7 | 0.00 | 0.00 | 0.00 | 100 | 1015.2 |
| 20260902134035 | 73 | 21 | 0.0 | 0.9 | 0.00 | 0.00 | 0.00 | 100 | 1015.2 |
| 20260902133835 | 73 | 21 | 0.0 | 0.9 | 0.00 | 0.00 | 0.00 | 100 | 1015.2 |
| 20260902133635 | 73 | 21 | 0.0 | 0.9 | 0.00 | 0.00 | 0.00 | 100 | 1015.2 |
| 20260902133434 | 73 | 22 | 0.0 | 0.9 | 0.00 | 0.00 | 0.00 | 100 | 1015.2 |
| 20260902133234 | 73 | 26 | 0.0 | 0.9 | 0.00 | 0.00 | 0.00 | 100 | 1015.3 |
| 20260902133034 | 73 | 27 | 0.0 | 0.9 | 0.00 | 0.00 | 0.00 | 100 | 1015.2 |
| 20260902132833 | 73 | 27 | 0.0 | 0.9 | 0.00 | 0.00 | 0.00 | 100 | 1015.2 |
| 20260902132633 | 73 | 27 | 0.0 | 0.9 | 0.00 | 0.00 | 0.00 | 100 | 1015.2 |
| 20260902132433 | 73 | 0 | 0.0 | 0.9 | 0.00 | 0.00 | 0.00 | 100 | 1015.2 |
| 20260902132232 | 73 | 0 | 0.0 | 0.9 | 0.00 | 0.00 | 0.00 | 100 | 1015.2 |
| 20260902132032 | 73 | 0 | 0.0 | 0.9 | 0.00 | 0.00 | 0.00 | 100 | 1015.1 |
| 20260902131832 | 73 | 27 | 0.0 | 0.9 | 0.00 | 0.00 | 0.00 | 100 | 1015.2 |
| 20260902131632 | 72 | 27 | 0.0 | 0.9 | 0.00 | 0.00 | 0.00 | 100 | 1015.2 |
| 20260902131431 | 72 | 27 | 0.0 | 0.9 | 0.00 | 0.00 | 0.00 | 100 | 1015.1 |
| 20260902131231 | 73 | 27 | 0.0 | 0.9 | 0.00 | 0.00 | 0.00 | 100 | 1015.1 |
| 20260902131031 | 73 | 27 | 0.0 | 0.9 | 0.00 | 0.00 | 0.00 | 100 | 1015.1 |
| 20260902130830 | 73 | 0 | 0.0 | 0.9 | 0.00 | 0.00 | 0.00 | 100 | 1015.1 |
| 20260902130630 | 73 | 27 | 0.0 | 0.9 | 0.00 | 0.00 | 0.00 | 100 | 1015.1 |
| 20260902130430 | 73 | 27 | 0.0 | 0.9 | 0.00 | 0.00 | 0.00 | 100 | 1015.1 |
| 20260902130229 | 73 | 0 | 0.0 | 0.9 | 0.00 | 0.00 | 0.00 | 100 | 1015.1 |
| 20260902130029 | 73 | 0 | 0.0 | 0.9 | 0.00 | 0.00 | 0.00 | 100 | 1015.0 |
| 20260902125829 | 73 | 0 | 0.0 | 1.7 | 0.00 | 0.00 | 0.00 | 100 | 1015.0 |
| 20260902125628 | 73 | 27 | 0.0 | 1.7 | 0.00 | 0.00 | 0.00 | 100 | 1015.0 |
| 20260902125428 | 73 | 0 | 0.0 | 1.7 | 0.00 | 0.00 | 0.00 | 100 | 1015.1 |
| 20260902125228 | 73 | 49 | 0.0 | 1.7 | 0.00 | 0.00 | 0.00 | 100 | 1015.0 |
| 20260902125027 | 73 | 49 | 0.0 | 1.7 | 0.00 | 0.00 | 0.00 | 100 | 1015.0 |
| 20260902124827 | 73 | 220 | 0.0 | 0.9 | 0.00 | 0.00 | 0.00 | 100 | 1014.9 |
| 20260902124627 | 73 | 220 | 0.0 | 0.9 | 0.00 | 0.00 | 0.00 | 100 | 1014.9 |
| 20260902124427 | 73 | 220 | 0.0 | 0.9 | 0.00 | 0.00 | 0.00 | 100 | 1014.9 |
| 20260902124226 | 73 | 220 | 0.0 | 0.9 | 0.00 | 0.00 | 0.00 | 100 | 1014.8 |
| 20260902124026 | 73 | 0 | 0.0 | 0.9 | 0.00 | 0.00 | 0.00 | 100 | 1014.8 |
| 20260902123826 | 73 | 0 | 0.0 | 0.9 | 0.00 | 0.00 | 0.00 | 100 | 1014.8 |
| 20260902123625 | 73 | 0 | 0.0 | 0.9 | 0.00 | 0.00 | 0.00 | 100 | 1014.8 |
| 20260902123425 | 73 | 220 | 0.0 | 0.9 | 0.00 | 0.00 | 0.00 | 100 | 1014.7 |
| 20260902123225 | 73 | 220 | 0.0 | 0.9 | 0.00 | 0.00 | 0.00 | 100 | 1014.8 |
| 20260902123024 | 73 | 0 | 0.0 | 0.9 | 0.00 | 0.00 | 0.00 | 100 | 1014.7 |
| 20260902122824 | 72 | 0 | 0.0 | 0.9 | 0.00 | 0.00 | 0.00 | 100 | 1014.6 |
| 20260902122624 | 72 | 220 | 0.0 | 0.9 | 0.00 | 0.00 | 0.00 | 100 | 1014.6 |
| 20260902122423 | 72 | 220 | 0.0 | 0.9 | 0.00 | 0.00 | 0.00 | 100 | 1014.7 |
| 20260902122223 | 72 | 220 | 0.0 | 0.9 | 0.00 | 0.00 | 0.00 | 100 | 1014.7 |
| 20260902122023 | 72 | 0 | 0.0 | 0.9 | 0.00 | 0.00 | 0.00 | 100 | 1014.8 |
| 20260902121822 | 72 | 220 | 0.0 | 0.9 | 0.00 | 0.00 | 0.00 | 100 | 1014.8 |
| 20260902121622 | 72 | 220 | 0.0 | 0.9 | 0.00 | 0.00 | 0.00 | 100 | 1014.7 |
| 20260902121422 | 72 | 220 | 0.0 | 0.9 | 0.00 | 0.00 | 0.00 | 100 | 1014.7 |
| 20260902121222 | 72 | 220 | 0.0 | 0.9 | 0.00 | 0.00 | 0.00 | 100 | 1014.7 |
| 20260902121021 | 72 | 220 | 0.0 | 0.9 | 0.00 | 0.00 | 0.00 | 100 | 1014.7 |
| 20260902120821 | 72 | 220 | 0.0 | 0.9 | 0.00 | 0.00 | 0.00 | 100 | 1014.8 |
| 20260902120621 | 72 | 220 | 0.0 | 0.9 | 0.00 | 0.00 | 0.00 | 100 | 1014.8 |
| 20260902120420 | 72 | 0 | 0.0 | 0.9 | 0.00 | 0.00 | 0.00 | 100 | 1014.8 |
| 20260902120220 | 72 | 220 | 0.0 | 1.7 | 0.00 | 0.00 | 0.00 | 100 | 1014.7 |
| 20260902120020 | 72 | 220 | 0.0 | 2.6 | 0.00 | 0.00 | 0.00 | 100 | 1014.7 |
| 20260902115819 | 72 | 220 | 0.0 | 2.6 | 0.00 | 0.00 | 0.00 | 100 | 1014.8 |
| 20260902115619 | 72 | 194 | 0.0 | 2.6 | 0.00 | 0.00 | 0.00 | 100 | 1014.9 |
| 20260902115419 | 72 | 185 | 0.9 | 2.6 | 0.00 | 0.00 | 0.00 | 100 | 1014.9 |
| 20260902115218 | 72 | 209 | 0.9 | 2.6 | 0.00 | 0.00 | 0.00 | 100 | 1014.9 |
| 20260902115018 | 72 | 246 | 0.0 | 2.6 | 0.00 | 0.00 | 0.00 | 100 | 1014.9 |
| 20260902114818 | 72 | 246 | 0.0 | 2.6 | 0.00 | 0.00 | 0.00 | 100 | 1014.8 |
| 20260902114618 | 72 | 246 | 0.9 | 3.5 | 0.00 | 0.00 | 0.00 | 100 | 1014.7 |
| 20260902114417 | 72 | 237 | 0.9 | 3.5 | 0.00 | 0.00 | 0.00 | 100 | 1014.7 |
| 20260902114217 | 72 | 205 | 0.9 | 4.3 | 0.00 | 0.00 | 0.00 | 100 | 1014.7 |
| 20260902114017 | 72 | 223 | 0.9 | 5.2 | 0.00 | 0.00 | 0.00 | 100 | 1014.7 |
| 20260902113816 | 72 | 210 | 0.9 | 5.2 | 0.00 | 0.00 | 0.00 | 100 | 1014.7 |
| 20260902113616 | 72 | 197 | 0.9 | 5.2 | 0.00 | 0.00 | 0.00 | 100 | 1014.7 |
| 20260902113416 | 72 | 213 | 1.7 | 5.2 | 0.00 | 0.00 | 0.00 | 100 | 1014.7 |
| 20260902113215 | 72 | 224 | 1.7 | 3.5 | 0.00 | 0.00 | 0.00 | 100 | 1014.7 |
| 20260902113015 | 72 | 226 | 0.9 | 3.5 | 0.00 | 0.00 | 0.00 | 100 | 1014.7 |
| 20260902112815 | 72 | 240 | 0.9 | 3.5 | 0.00 | 0.00 | 0.00 | 100 | 1014.6 |
| 20260902112614 | 71 | 238 | 0.9 | 2.6 | 0.00 | 0.00 | 0.00 | 100 | 1014.6 |
| 20260902112414 | 71 | 234 | 0.0 | 4.3 | 0.00 | 0.00 | 0.00 | 100 | 1014.6 |
| 20260902112214 | 71 | 234 | 0.0 | 4.3 | 0.00 | 0.00 | 0.00 | 100 | 1014.6 |
| 20260902112013 | 71 | 234 | 0.9 | 4.3 | 0.00 | 0.00 | 0.00 | 100 | 1014.6 |
| 20260902111813 | 71 | 224 | 0.9 | 4.3 | 0.00 | 0.00 | 0.00 | 100 | 1014.4 |
| 20260902111613 | 71 | 131 | 0.9 | 4.3 | 0.00 | 0.00 | 0.00 | 100 | 1014.3 |
| 20260902111412 | 71 | 133 | 1.7 | 4.3 | 0.00 | 0.00 | 0.00 | 100 | 1014.2 |
| 20260902111212 | 71 | 230 | 0.9 | 4.3 | 0.00 | 0.00 | 0.00 | 100 | 1014.2 |
| 20260902111012 | 71 | 243 | 1.7 | 5.2 | 0.00 | 0.00 | 0.00 | 100 | 1014.1 |
| 20260902110812 | 71 | 212 | 0.9 | 5.2 | 0.00 | 0.00 | 0.00 | 100 | 1014.0 |
| 20260902110611 | 71 | 201 | 1.7 | 5.2 | 0.00 | 0.00 | 0.00 | 100 | 1013.9 |